Location: Pinawa
(50.1500°N, 95.8830°W)
Time: 07:08:16
(UTC-05:00)

Daily predictions for brighter satellites

Satellite Brightness Start Highest point End
(mag) Time Altitude Azimuth Time Altitude Azimuth Time Altitude Azimuth
Cosmos 1980 Rocket 2.5 20:52:04 10° SW 20:57:40 75° WNW 21:03:18 10° NNE
Cosmos 1939 Rocket 3.0 20:56:24 10° SSE 21:00:15 54° ENE 21:04:06 10° N
Cosmos 2026 Rocket 4.3 20:54:19 10° SSW 21:00:41 80° W 21:07:07 10° N
Cosmos 1536 3.5 20:57:09 10° SSE 21:00:51 35° E 21:04:35 10° NNE
Envisat 3.0 20:58:12 10° SSE 21:03:17 83° ENE 21:08:24 10° NNW
Cosmos 1697 Rocket 4.3 21:07:07 10° WSW 21:12:25 40° NW 21:17:45 10° NNE
H-2A R/B 3.5 21:09:03 10° ESE 21:12:38 20° ENE 21:16:10 10° NNE
Meteor 2-4 Rocket 3.7 21:10:36 10° NNW 21:16:09 87° ENE 21:21:52 10° SSE
Okean 2 Rocket 4.3 21:13:06 10° SSW 21:17:28 48° WNW 21:21:53 10° N
CZ-4B DEB 3.5 21:15:47 10° SE 21:18:21 30° ENE 21:20:56 10° N
Cosmos 1655 Rocket 4.4 21:15:23 10° SSW 21:21:40 73° W 21:28:05 10° N
Helios 1B rocket 3.1 21:24:36 10° NNE 21:28:25 35° E 21:32:11 10° SSE
ATLAS 2AS CENTAUR R/B 3.2 21:22:07 10° S 21:29:31 50° ESE 21:37:16 10° NE
USA 186 3.6 21:26:59 10° SSW 21:30:05 34° W 21:33:11 10° NNW
BREEZE M DEB (TANK) 4.2 21:27:38 10° SSW 21:31:59 17° SSE 21:33:38 14° SE
CENTAUR R/B 4.1 21:28:00 10° NW 21:34:38 35° NNE 21:41:57 10° E
NOSS 3-1 (A) 4.3 21:30:42 10° WSW 21:36:37 56° NW 21:43:25 10° NE
SPOT 5 3.7 21:33:36 13° ESE 21:37:13 32° ENE 21:41:17 10° N
Cosmos 883 Rocket 4.5 21:31:39 10° N 21:37:49 87° E 21:43:59 10° S
Lacrosse 5 2.3 21:34:53 10° SSW 21:39:36 40° SE 21:44:20 10° ENE
NOSS 2-3 (E) 4.0 21:34:57 10° SSW 21:39:41 64° SE 21:45:23 10° NE
Cosmos 1420 Rocket 4.5 21:37:07 10° SW 21:42:16 66° WNW 21:47:28 10° NNE
SL-8 R/B 4.0 21:40:05 10° W 21:44:45 53° SSW 21:48:14 17° SE
Cosmos 1331 Rocket 4.4 21:40:06 10° S 21:44:57 41° ESE 21:49:51 10° NE
SeaSat 1 2.4 21:40:19 10° NE 21:45:16 69° ESE 21:50:11 10° SSW
SL-08 RB Rocket 4.2 21:49:38 18° SE 21:52:43 42° ENE 21:57:00 10° N
ARGOS 3.3 21:49:54 15° SE 21:54:16 58° ENE 21:59:33 10° N
Cosmos 1025 Rocket 3.0 21:51:43 10° NNW 21:56:00 83° W 22:00:09 11° S
Cosmos 1743 4.4 21:56:16 16° E 21:56:35 16° E 21:59:01 10° NE
Okean 1 Rocket 3.0 21:52:40 10° S 21:57:01 87° W 22:01:28 10° N
Okean 2 3.3 21:53:14 10° N 21:57:22 89° ESE 22:00:55 13° S
Cosmos 1300 Rocket 4.1 21:53:37 10° SSW 21:57:52 60° WNW 22:02:10 10° N
Cosmos 2263 Rocket 3.4 21:53:53 10° NW 21:59:09 39° WSW 22:04:23 10° S
YAOGAN 6 3.7 21:57:30 10° S 22:00:52 42° W 22:04:15 10° NNW
Cosmos 2278 Rocket 3.3 21:57:54 10° NNW 22:03:00 32° NE 22:06:39 17° E
Okean 1-7 Rocket 3.9 22:01:40 10° NNW 22:06:08 71° W 22:10:26 11° S
ERBS 3.8 22:02:54 10° W 22:06:11 38° NNW 22:09:29 10° NE
Cosmos 1844 Rocket 2.8 22:00:44 10° NNW 22:06:26 67° ENE 22:10:09 22° SE
Cosmos 2322 Rocket 2.8 22:02:14 10° SW 22:07:53 61° WNW 22:13:32 10° NNE
Abrixas rocket 2.5 22:05:33 10° W 22:08:46 52° SSW 22:09:53 33° SE
USA 215 4.1 22:03:09 10° ENE 22:09:25 51° N 22:15:42 10° W
Cosmos 1515 3.8 22:06:18 10° NNW 22:10:08 77° W 22:12:54 18° S
Molniya-1 3.5 22:08:28 10° NW 22:11:01 79° SW 22:12:19 34° SE
Resurs 01 Rocket 4.4 22:09:24 10° SW 22:12:10 16° W 22:14:58 10° NW
Cosmos 1818 4.4 22:10:06 19° SSE 22:12:46 28° ESE 22:17:21 10° ENE
NOSS 2-3 (C) 4.1 22:08:30 10° SW 22:13:24 81° NW 22:19:21 10° NE
SPOT 1/Viking Rocket 3.8 22:10:42 23° SE 22:13:51 54° ENE 22:18:58 10° N
Cosmos 2237 4.4 22:08:54 10° S 22:14:20 48° ESE 22:19:48 10° NE
Cosmos 1975 3.1 22:16:24 28° SSE 22:18:09 48° E 22:22:01 10° NNE
Terra 2.8 22:16:55 23° ESE 22:18:55 31° ENE 22:23:07 10° N
YAOGAN 11 4.1 22:16:51 27° SE 22:19:06 63° ENE 22:23:23 10° N
SL-16 R/B 3.1 22:14:40 10° SW 22:20:12 51° NW 22:25:45 10° NNE
NOSS 3-2 (A) 4.0 22:12:55 10° NW 22:20:14 83° NE 22:25:38 23° SE
Cosmos 1503 Rocket 4.3 22:15:26 10° NNW 22:20:44 56° ENE 22:23:33 27° SE
BREEZE-M DEB 3.5 22:11:21 10° WNW 22:20:56 67° SSW 22:22:33 32° SE
Cosmos 2315 Rocket 4.4 22:15:23 10° NNW 22:21:32 63° W 22:27:43 10° S
USA 238 DEB 4.0 22:15:27 10° NW 22:22:26 64° SW 22:27:24 21° SSE
USA 238 4.0 22:15:33 10° NW 22:22:33 64° SW 22:27:30 21° SSE
Cosmos 724 4.3 22:17:34 10° NW 22:23:31 75° NE 22:26:49 27° SE
MetOp-B 4.3 22:19:30 16° S 22:23:48 74° WSW 22:29:11 10° NNW
Meteor 1-29 3.2 22:21:13 10° N 22:24:38 69° WNW 22:27:47 12° SSW
H-2A R/B 3.7 22:23:50 18° E 22:25:13 20° ENE 22:28:28 10° NNE
Cosmos 2219 Rocket 3.1 22:24:26 26° ESE 22:25:30 28° ESE 22:30:14 10° NE
Cosmos 1500 3.1 22:27:03 21° S 22:29:36 88° E 22:33:30 10° N
Meteor 1-12 Rocket 4.3 22:26:33 20° S 22:30:24 59° E 22:35:58 10° NNE
ERS-1 Rocket 3.6 22:26:41 14° S 22:30:54 54° W 22:35:51 10° NNW
Cosmos 2322 3.6 22:25:45 10° SSW 22:31:24 80° ESE 22:37:07 10° NNE
USA 245 3.6 22:28:30 23° S 22:31:28 80° WSW 22:35:29 10° NNW
ATLAS 3B R/B 3.3 22:30:32 10° NW 22:36:55 46° WSW 22:41:11 20° S
Cosmos 2360 Rocket 2.3 22:34:45 10° SSW 22:40:24 77° WNW 22:46:04 10° NNE
COSMOS 2428 2.8 22:37:40 15° S 22:42:24 57° ESE 22:48:01 10° NE
Cosmos 1626 Rocket 3.8 22:38:13 10° N 22:42:27 51° ENE 22:43:28 41° ESE
Cosmos 1844 3.7 22:39:21 10° NNW 22:45:04 86° WSW 22:47:46 33° SSE
Cosmos 1892 Rocket 4.0 22:40:51 10° NNW 22:45:13 58° W 22:47:36 25° SSW
Cosmos 1745 Rocket 3.9 22:45:49 26° S 22:49:18 67° E 22:55:25 10° NNE
Cosmos 1238 Rocket 4.4 22:43:20 10° NNW 22:50:01 64° W 22:54:49 18° S
H-2A R/B 2.1 22:49:01 29° S 22:51:35 72° WSW 22:56:34 10° NNW
ATLAS CENTAUR R/B 3.1 22:49:04 10° NNW 22:51:56 21° NNE 22:53:18 17° ENE
Cosmos 1437 Rocket 2.7 22:54:37 58° SE 22:55:01 62° E 22:58:56 10° NNE
Cosmos 2333 Rocket 2.7 22:55:01 37° ESE 22:55:40 38° ESE 23:00:50 10° NE
EXPRESS MD2 3.7 22:54:37 10° W 22:58:10 87° S 23:05:31 10° E
NOSS 3-2 (C) 4.0 22:52:01 10° NW 22:59:24 81° SW 23:03:28 33° SSE
Meteor 1-4 Rocket 4.5 23:00:56 20° ENE 23:00:56 20° ENE 23:02:47 10° NE
Cosmos 2333 4.1 22:58:36 19° SSW 23:02:46 73° ESE 23:08:23 10° NNE
Cosmos 1544 Rocket 3.8 23:01:28 28° SSW 23:03:45 70° WNW 23:08:13 10° N
Cosmos 405 4.0 23:02:28 24° SW 23:04:14 45° WNW 23:07:43 10° N
Cosmos 1302 Rocket 4.1 22:59:41 10° SSW 23:04:56 79° WNW 23:10:15 10° NNE
Cosmos 1992 Rocket 4.4 23:06:34 41° ESE 23:06:45 41° ESE 23:11:38 10° NE
COSMOS 2455 3.7 23:01:34 10° NNW 23:07:15 41° NE 23:10:05 26° E
GP-B 3.0 23:04:58 10° N 23:09:25 67° E 23:10:00 59° SE
IGS 5A 3.3 23:09:44 66° SE 23:10:16 81° ENE 23:14:28 10° NNW
Cosmos 968 Rocket 3.7 23:06:19 10° NNW 23:11:22 55° ENE 23:12:34 44° ESE
Cosmos 2237 Rocket 2.8 23:12:24 35° E 23:12:24 35° E 23:17:13 10° NE
Cosmos 1386 Rocket 4.4 23:10:15 34° S 23:13:07 78° E 23:19:28 10° NNE
Cosmos 1666 2.5 23:14:52 84° SE 23:14:56 85° E 23:18:49 10° N
SPOT 5 4.0 23:12:51 23° SSW 23:15:15 37° W 23:19:32 10° NNW
Cosmos 1455 Rocket 3.5 23:14:10 30° SW 23:16:10 60° WNW 23:20:36 10° N
Cosmos 1980 4.1 23:18:31 42° ESE 23:18:37 42° ESE 23:23:57 10° NE
Aureole 2 Rocket 3.4 23:20:25 37° NNE 23:20:25 37° NNE 23:22:27 10° NNE
ATLAS 2AS CENTAUR R/B 3.6 23:12:43 10° WSW 23:20:33 60° NW 23:28:39 10° NE
Cosmos 1758 Rocket 4.5 23:17:30 10° N 23:21:26 34° ENE 23:21:26 34° ENE
Cosmos 1842 3.1 23:18:20 10° N 23:22:18 87° W 23:22:20 87° SW
Lacrosse 5 2.3 23:17:24 10° WSW 23:22:27 63° NNW 23:27:30 10° NE
Cosmos 1241 Rocket 4.5 23:16:16 10° SW 23:22:50 89° SE 23:29:21 10° NE
CENTAUR R/B 3.1 23:18:55 10° NW 23:26:35 74° NE 23:30:30 35° ESE
ATLAS CENTAUR R/B 4.1 23:12:41 10° WNW 23:29:30 66° NNE 23:33:13 25° E
Cosmos 1340 Rocket 4.4 23:27:15 10° NNE 23:30:04 24° NE 23:30:04 24° NE
NOSS 3-4 (A) 3.5 23:28:46 42° S 23:30:39 59° SE 23:37:04 10° NE
NOSS 3-4 (C) 3.5 23:28:58 43° S 23:30:46 58° SE 23:37:11 10° NE
Cosmos 1743 3.5 23:31:23 41° WSW 23:32:03 46° WNW 23:35:46 10° N
Cosmos 2297 3.9 23:29:02 10° NNW 23:34:39 60° NE 23:35:58 47° ESE
Timation 1 Rocket 4.5 23:28:53 10° NW 23:34:49 66° WSW 23:36:23 48° S
CZ-4B R/B 4.2 23:35:19 10° NNE 23:39:02 36° ENE 23:39:02 36° ENE
DMSP B5D2-2 4.3 23:36:20 10° N 23:41:33 66° WNW 23:43:42 36° SW
Cosmos 2278 Rocket 2.4 23:41:51 10° NW 23:47:25 58° WSW 23:48:29 49° SSW
Cosmos 1184 Rocket 4.5 23:44:39 10° N 23:46:36 31° NNE 23:46:36 31° NNE
CARTOSAT-1 4.4 23:47:41 40° WSW 23:48:06 41° W 23:52:14 10° NNW
DELTA 2 DEB (DPAF) 4.1 23:48:57 71° ENE 23:48:57 71° ENE 23:53:23 10° N
Cosmos 1844 Rocket 4.3 23:45:24 10° NW 23:49:51 24° WSW 23:51:49 20° SW
ARGOS Delta rocket 3.6 23:46:29 10° N 23:51:03 84° WNW 23:51:21 77° SW
ALOS 2 3.9 23:51:24 30° ENE 23:51:24 30° ENE 23:55:08 10° N
USA 215 3.8 23:46:20 14° E 23:51:54 56° NNE 23:58:17 10° WNW
